Boise Air Terminal/Gowen field
KBOI : now visible

Airfield :











YOU CAN JOIN US ON...

 
LOGIN :

Register | Disclaimer

   EN    FR    IT 

 









Legend :    VFR   Marginal VFR   IFR   Intensive IFR   Very Intensive IFR
Visi :
Ceiling :
>= 8 km
>= 3000ft
5 to 8 km
1000 to 3000 ft
1500m to 5 km
500 to 1000 ft
800 to 1500m
200 to 500 ft
< 800m
< 200 ft
Symbols :   Thunderstorms  Fog  Heavy snow  Heavy precipitations  Wind > 20 kt







- Airport Elevation : 2871 ft
- IATA code : BOI


KBOI - Boise Air Terminal/Gowen field

CURRENT METAR :
  • 201553Z 30011KT 10SM CLR 11/07 A2995 RMK AO2 SLP133 T01110067

EXPIRED METARs :
  • 201453Z AUTO 29008KT 10SM OVC110 10/06 A2994 RMK AO2 SLP131 T01000061 51005
  • 201353Z AUTO 29008KT 10SM OVC110 09/06 A2993 RMK AO2 SLP129 T00940061

TAF KBOI
Valid from the 20 at 12:00 until the 21 at 12:00 UTC


201124Z 2012/2112 29010KT P6SM -DZ SCT050 OVC080
FM201400 30008KT P6SM SCT030 OVC080
FM201800 31015G20KT P6SM SCT080
FM210200 31007KT P6SM SCT100
No reported NOTAMs for that airfield.



MET'MAP, your aeronautical weather chart ! - Copyright ORBIFLY December 2007 - Disclaimer

ORBIFLY MET'MAP TEAM :

Programming & Development : Alexandra Zaïnal
Concept & Development : Baudouin d'Aumeries
Co-Development & Prog : Marc-Olivier Méhu
Technical & hardware support : Manuel Goepfert

Contact : metmap@orbifly.com




SOURCES & CREDITS :

   NOAA       Earth
Advisory